This is the latest recevied weather packets stored in our database for station/object SQ9RHX-13. If no packets are shown the sender has not sent any weather packets the latest 10 day(s).
| Time | Temp. | Humidity | Pressure | Rain* | Wind** | Luminosity | Snow |
|---|---|---|---|---|---|---|---|
| 1777921802 | 16.11° C | 68% | 1015.3 hPa | 0 mm | - | 0 W/m² | - |
| 1777921503 | 16.11° C | 68% | 1015.2 hPa | 0 mm | - | 0 W/m² | - |
| 1777921204 | 16.11° C | 66% | 1015.3 hPa | 0 mm | - | 0 W/m² | - |
| 1777920904 | 16.67° C | 64% | 1015.2 hPa | 0 mm | - | 0 W/m² | - |
| 1777920605 | 16.67° C | 65% | 1015.1 hPa | 0 mm | - | 0 W/m² | - |
| 1777920302 | 16.67° C | 63% | 1014.9 hPa | 0 mm | - | 0 W/m² | - |
| 1777920003 | 17.22° C | 62% | 1015 hPa | 0 mm | - | 0 W/m² | - |
| 1777919704 | 17.22° C | 61% | 1015 hPa | 0 mm | - | 0 W/m² | - |
| 1777919404 | 17.78° C | 60% | 1015 hPa | 0 mm | - | 0 W/m² | - |
| 1777919105 | 18.33° C | 59% | 1014.8 hPa | 0 mm | - | 1 W/m² | - |
| 1777918803 | 18.33° C | 60% | 1014.9 hPa | 0 mm | - | 1 W/m² | - |
| 1777918504 | 18.89° C | 58% | 1014.8 hPa | 0 mm | - | 2 W/m² | - |
| 1777918203 | 19.44° C | 53% | 1014.9 hPa | 0 mm | - | 3 W/m² | - |
| 1777917903 | 20° C | 51% | 1014.8 hPa | 0 mm | - | 5 W/m² | - |
| 1777917604 | 20.56° C | 50% | 1014.8 hPa | 0 mm | - | 6 W/m² | - |
| 1777917304 | 21.11° C | 51% | 1014.8 hPa | 0 mm | - | 8 W/m² | - |
| 1777917003 | 21.67° C | 48% | 1014.8 hPa | 0 mm | - | 10 W/m² | - |
| 1777916702 | 22.22° C | 48% | 1014.7 hPa | 0 mm | - | 12 W/m² | - |
| 1777916403 | 22.78° C | 46% | 1014.7 hPa | 0 mm | - | 14 W/m² | - |
| 1777916104 | 23.89° C | 43% | 1014.7 hPa | 0 mm | - | 17 W/m² | - |
| 1777915804 | 23.89° C | 41% | 1014.6 hPa | 0 mm | - | 21 W/m² | - |
| 1777915503 | 24.44° C | 38% | 1014.6 hPa | 0 mm | - | 27 W/m² | - |
| 1777915202 | 24.44° C | 38% | 1014.7 hPa | 0 mm | - | 40 W/m² | - |
| 1777914902 | 24.44° C | 37% | 1014.6 hPa | 0 mm | - | 41 W/m² | - |
| 1777914603 | 25° C | 35% | 1014.8 hPa | 0 mm | - | 40 W/m² | - |
* Rain latest hour (hover to see other rain measurements)
** Current wind speed in m/s (hover to see current wind gust speed)